Location: Presov
(49.0000°N, 21.2500°E)
Time: 17:30:35
(UTC+02:00)

S-56A Canister/Altair - All Passes

Search period start: 23 April 2021 00:00
Search period end: 03 May 2021 00:00
Orbit: 632 x 2500 km, 38.9° (Epoch: 23 April)

Date Brightness Start Highest point End Pass type
(mag) Time Alt. Az. Time Alt. Az. Time Alt. Az.
23 Apr - 00:29:06 10° WSW 00:35:44 32° S 00:40:34 10° ESE visible
23 Apr - 02:33:59 10° WSW 02:38:40 24° SSW 02:42:30 10° SE visible
23 Apr - 21:52:18 10° SSW 21:59:32 23° SSE 22:05:01 10° ESE visible
23 Apr - 23:55:53 10° WSW 00:03:07 34° S 00:08:18 10° ESE visible
24 Apr - 02:00:52 10° WSW 02:06:12 27° SSW 02:10:22 10° SE night (unlit)
24 Apr - 21:19:12 10° SSW 21:26:45 23° SSE 21:32:31 10° ESE visible
24 Apr - 23:22:35 10° SW 23:30:28 34° S 23:36:01 10° ESE visible
25 Apr - 01:27:40 10° WSW 01:33:42 30° SSW 01:38:13 10° SE night (unlit)
25 Apr - 03:34:13 10° SW 03:36:05 12° SW 03:37:51 10° SSW visible
25 Apr - 20:46:06 10° SSW 20:53:55 22° SSE 20:59:58 10° ESE visible
25 Apr - 22:49:16 10° SW 22:57:45 35° S 23:03:42 10° ESE visible
26 Apr - 00:54:23 10° WSW 01:01:09 33° SSW 01:06:03 10° SE visible
26 Apr - 03:00:32 10° WSW 03:03:41 15° SSW 03:06:26 10° S night (unlit)
26 Apr - 20:13:03 10° SSW 20:21:02 21° SSE 20:27:20 10° ESE visible
26 Apr - 22:15:53 10° SW 22:24:59 36° S 22:31:20 10° ESE visible
27 Apr - 00:21:03 10° WSW 00:28:33 36° S 00:33:51 10° SE visible
27 Apr - 02:27:03 10° WSW 02:31:14 18° SSW 02:34:43 10° S night (unlit)
27 Apr - 19:40:03 10° S 19:48:08 20° SSE 19:54:36 10° ESE daylight
27 Apr - 21:42:29 10° SW 21:52:10 36° SSE 21:58:57 10° ESE visible
27 Apr - 23:47:39 10° WSW 23:55:54 39° S 00:01:37 10° ESE visible
28 Apr - 01:53:37 10° WSW 01:58:47 22° SSW 02:02:51 10° SSE visible
28 Apr - 19:07:08 10° S 19:15:10 19° SSE 19:21:45 10° ESE daylight
28 Apr - 21:09:05 10° SW 21:19:17 35° SSE 21:26:31 10° ESE visible
28 Apr - 23:14:11 10° WSW 23:23:12 41° S 23:29:22 10° ESE visible
29 Apr - 01:20:12 10° WSW 01:26:17 25° SSW 01:30:54 10° SSE visible
29 Apr - 18:34:20 10° S 18:42:11 18° SE 18:48:47 10° ESE daylight
29 Apr - 20:35:41 10° SW 20:46:21 35° SSE 20:54:01 10° E visible
29 Apr - 22:40:41 10° WSW 22:50:26 43° S 22:57:05 10° ESE visible
30 Apr - 00:46:43 10° W 00:53:45 29° SSW 00:58:52 10° SE visible
30 Apr - 18:01:41 10° S 18:09:11 17° SE 18:15:39 10° ESE daylight
30 Apr - 20:02:18 10° SW 20:13:21 34° SSE 20:21:28 10° E daylight
30 Apr - 22:07:08 10° WSW 22:17:36 44° S 22:24:44 10° ESE visible
01 May - 00:13:13 10° W 00:21:09 33° SSW 00:26:46 10° SE visible
01 May - 02:21:24 10° WSW 02:23:23 11° SW 02:25:12 10° SSW visible
01 May - 17:29:14 10° S 17:36:09 15° SE 17:42:19 10° ESE daylight
01 May - 19:28:58 10° SSW 19:40:19 33° SSE 19:48:50 10° E daylight
01 May - 21:33:33 10° WSW 21:44:42 45° S 21:52:20 10° ESE visible
01 May - 23:39:39 10° W 23:48:30 37° SSW 23:54:37 10° SE visible
02 May - 01:47:02 10° WSW 01:50:57 15° SW 01:54:15 10° S visible
02 May - 16:57:05 10° SSE 17:03:07 14° SE 17:08:40 10° ESE daylight
02 May - 18:55:41 10° SSW 19:07:13 32° SSE 19:16:08 10° E daylight
02 May - 20:59:58 10° WSW 21:11:45 46° S 21:19:54 10° ESE visible
02 May - 23:06:03 10° W 23:15:46 40° SSW 23:22:24 10° SE visible
